Regional Weather Roundup
Issued by NWS

Home | Current Version | Previous Version | Graphics & Text | Print | Product List | Glossary On
Versions: 1 2 3 4 5 6 7 8 9 10 11 12 13 14 15 16 17 18 19 20 21 22 23 24 25 26 27 28 29 30 31 32 33 34 35 36 37 38 39 40 41 42 43 44 45 46 47 48 49 50
000
ASUS43 KDTX 272110
RWRMI
MICHIGAN HOURLY REGIONAL WEATHER ROUNDUP
NATIONAL WEATHER SERVICE DETROIT/PONTIAC MI
500 PM EDT SAT MAY 27 2017

NOTE: "FAIR" INDICATES FEW OR NO CLOUDS BELOW 12,000 FEET WITH NO
SIGNIFICANT WEATHER AND/OR OBSTRUCTION TO VISIBILITY.

MIZ047>049-052>055-059>063-066>070-074>076-081>083-272200-
SOUTHEAST LOWER MICHIGAN

CITY           SKY/WX    TMP DP  RH WIND       PRES   REMARKS
ADRIAN         CLOUDY    70  54  56 SE8       29.91S
ALMA           CLOUDY    75  52  44 S8        29.90S
ANN ARBOR      CLOUDY    71  58  63 SE9       29.90S
BAD AXE        PTSUNNY   72  57  60 N7        29.91S
CARO           CLOUDY    74  58  56 N6        29.89F
DETROIT CITY   SUNNY     73  55  53 SE7       29.90S
DETROIT        CLOUDY    72  57  59 S9        29.91S
FLINT          CLOUDY    75  53  46 CALM      29.89F
GROSSE ILE     SUNNY     65  58  76 S8        29.91S
HILLSDALE      CLOUDY    70  55  60 SE5       29.90F
HOWELL         CLOUDY    73  51  45 SW5       29.90S

CITY           SKY/WX    TMP DP  RH WIND       PRES   REMARKS
JACKSON        CLOUDY    72  58  61 S5        29.90S
LAMBERTVILLE   SUNNY     72  53  50 E6        29.90F
LANSING        CLOUDY    74  54  49 CALM      29.90S
LAPEER         FAIR      74  54  49 CALM      29.90F
MASON          CLOUDY    72  57  58 SE5       29.91R
MONROE         MOSUNNY   70  55  57 SE6       29.90F
MT. CLEMENS    MOSUNNY   72  58  62 E7        29.89S
PONTIAC        PTSUNNY   73  53  49 CALM      29.89S
PORT HOPE        N/A     57  53  86 E6        29.91R
PORT HURON     PTSUNNY   72  54  53 E3        29.90S
TRI CITIES     PTSUNNY   77  56  48 CALM      29.89F
MIDLAND        CLOUDY    76  53  43 CALM      29.88S
TROY           CLOUDY    74  50  42 SE3       29.91S
SAGINAW HB     SUNNY     77  50  38 W5        29.89S
$$
MIZ043>046-050>051-056>058-064>065-071>073-077>080-272200-
SOUTHWEST LOWER MICHIGAN

CITY           SKY/WX    TMP DP  RH WIND       PRES   REMARKS
BATTLE CREEK   CLOUDY    73  58  59 CALM      29.91R
BENTON HARBOR  SUNNY     66  53  63 NW8       29.89F
BIG RAPIDS     CLOUDY    75  52  44 S9        29.88S
COLDWATER      CLOUDY    71  60  69 CALM      29.90F
FREMONT        FAIR      76  49  38 W10       29.88S
HOLLAND        SUNNY     71  52  50 W12       29.91S
GRAND RAPIDS   PTSUNNY   74  57  55 S8        29.89S
IONIA          CLOUDY    74  51  44 CALM      29.89S
KALAMAZOO      CLOUDY    74  56  53 VRB3      29.90S
LUDINGTON      SUNNY     63  53  70 SW6       29.90S
MARSHALL       CLOUDY    72  58  60 CALM      29.90S
MOUNT PLEASANT PTSUNNY   76  54  46 S5        29.88F
MUSKEGON       MOSUNNY   70  49  47 W10       29.90S
SOUTH HAVEN    SUNNY     68  54  60 NW8       29.90F
$$
MIZ016>042-272200-
NORTHERN LOWER MICHIGAN

CITY           SKY/WX    TMP DP  RH WIND       PRES   REMARKS
ALPENA         SUNNY     72  53  51 SE15      29.89F
BEAVER ISLAND  SUNNY     70  55  58 SW9       29.88F
BELLAIRE       SUNNY     71  52  50 NW7       29.87R
CADILLAC       MOSUNNY   76  53  45 S9        29.88F
CHARLEVOIX     SUNNY     65  55  70 NW10      29.92S
FRANKFORT      MOSUNNY   64  49  58 W3        29.90S
GAYLORD        PTSUNNY   74  50  42 S8        29.88S
GRAYLING       PTSUNNY   74  53  48 S7        29.89S
HARBOR SPRINGS PTSUNNY   59  50  73 S6        29.88S
HOUGHTON LAKE  CLOUDY    73  53  49 S7        29.89F
MANISTEE       CLOUDY    65  51  60 SW8       29.89F
OSCODA         PTSUNNY   69  52  53 SE8       29.89F
PELLSTON       PTSUNNY   72  49  44 N10       29.88S
ROGERS CITY    MOSUNNY   70  53  56 E6        29.88S
TRAVERSE CITY  PTSUNNY   75  54  47 NW9       29.86R
$$
MIZ007>008-015-272200-
EASTERN UPPER MICHIGAN

CITY           SKY/WX    TMP DP  RH WIND       PRES   REMARKS
KINROSS        CLOUDY    74  53  48 SW9G17    29.87S
MACKINAC ISLAN MOSUNNY   68  51  55 CALM      29.89S
NEWBERRY       SUNNY     72  53  50 SW15      29.86S
S. S. MARIE    CLOUDY    75  55  49 SW14      29.85S
MUNISING         N/A     72  53  51 S10       29.82R
$$
MIZ004>006-011>014-085-272200-
CENTRAL UPPER MICHIGAN

CITY           SKY/WX    TMP DP  RH WIND       PRES   REMARKS
MANISTIQUE     SUNNY     61  50  67 S8        29.87R
ESCANABA       CLOUDY    66  53  63 S9        29.84F
SAWYER-GWINN   MOSUNNY   72  59  64 S12       29.82S
$$
MIZ001>003-009>011-084-272200-
WESTERN UPPER MICHIGAN

CITY           SKY/WX    TMP DP  RH WIND       PRES   REMARKS
IRON MOUNTAIN  MOSUNNY   79  43  27 W10       29.80S
HOUGHTON       SUNNY     70  44  39 NW16G23   29.82S
COPPER HARBOR    N/A     53  46  77 N15       29.81S
IRONWOOD       PTSUNNY   69  45  41 NW9       29.86R
$$

ABBREVIATIONS USED IN REMARKS
   TC - TEMPERATURE IN CELSIUS
  WCI - WIND CHILL INDEX
   HX - HEAT INDEX
  VSB - VISIBILITY




USA.gov is the U.S. government's official web portal to all federal, state and local government web resources and services.